Theta_e
317 323 324 325 325 325 325 325 325 324 324 323 323 324 324 324 325 326 326 324 324 324 323 323 322 321 321 320 320 320 321 322 323 323 323 323 322 323 323 322 321 320 317 318 316 312 308 305 302 300 301 288
313 314 317 322 323 325 328 327 326 325 325 324 324 323 326 327 325 326 327 326 324 323 323 323 322 322 321 320 320 320 320 321 322 323 323 323 322 322 322 323 322 320 318 318 316 312 307 304 302 300 300 286
305 311 313 315 319 322 322 325 327 326 326 326 325 326 326 324 322 322 325 326 326 323 323 324 324 321 321 320 321 320 320 320 321 323 323 323 322 321 321 323 321 320 318 318 316 311 307 303 302 301 296 286
302 306 309 311 314 318 320 321 321 323 326 327 324 323 322 319 317 318 319 324 322 325 324 323 321 321 320 321 320 320 319 321 321 322 322 322 322 322 320 321 321 319 318 317 315 310 305 302 303 293 285 285
301 302 306 306 308 311 314 317 320 320 319 318 320 319 317 316 313 312 313 317 317 322 318 317 319 322 320 320 320 319 319 319 320 320 322 322 321 320 321 321 320 320 317 316 314 309 304 303 291 287 286 285
299 299 302 301 302 305 308 311 315 315 314 314 312 314 314 309 309 310 310 312 314 314 315 315 317 319 321 320 319 319 319 321 319 320 321 322 321 320 320 320 313 316 316 315 312 307 304 292 287 287 285 284
297 296 298 299 300 301 305 306 307 308 312 313 313 311 310 310 309 309 309 311 312 313 314 313 316 316 322 320 319 320 320 321 319 319 320 321 320 320 320 311 308 308 309 310 310 306 293 287 287 285 283 284
294 295 296 296 297 298 299 301 303 304 305 308 312 313 312 310 309 308 309 312 312 313 312 313 315 316 318 318 318 318 317 318 320 320 320 320 320 319 314 305 305 305 304 306 301 290 287 287 285 284 283 283
293 294 294 294 296 296 297 298 299 301 301 304 306 310 312 312 310 309 308 307 309 310 310 308 310 312 312 311 309 314 308 308 307 312 308 309 315 305 306 303 302 302 302 300 294 287 285 285 284 284 285 281
293 293 292 292 294 294 294 296 296 298 299 300 302 306 309 311 310 309 308 306 306 307 307 307 308 308 307 307 307 309 306 301 299 300 299 302 302 302 302 301 297 300 300 294 291 287 285 285 284 284 282 281
291 291 292 292 294 293 292 294 293 295 296 298 300 301 305 308 310 310 308 307 306 306 306 306 306 306 306 305 305 305 305 302 301 299 297 297 297 298 296 294 295 298 296 295 290 288 286 284 284 283 282 281
290 290 291 292 294 292 294 293 292 293 294 296 297 299 301 305 307 309 309 308 307 306 304 305 306 305 304 304 304 305 305 302 297 296 293 292 296 295 294 295 292 293 293 293 291 288 287 285 284 283 282 282
289 289 290 290 291 290 297 291 291 292 293 293 294 296 299 301 302 306 308 309 310 307 305 304 304 303 304 303 303 303 302 302 299 297 296 294 292 295 295 294 292 291 291 292 290 290 287 286 284 283 282 282
288 289 289 289 290 290 294 290 291 292 292 292 292 293 295 297 300 302 305 307 309 309 307 305 305 303 303 302 303 303 302 300 301 298 295 293 292 294 295 292 292 291 290 289 289 289 288 287 286 284 283 282
288 289 288 290 290 290 290 290 292 291 291 291 292 292 293 294 297 299 302 304 307 309 309 307 306 305 304 302 301 303 303 300 301 298 298 296 294 295 294 292 291 291 290 290 288 290 288 288 286 284 283 282
288 288 288 289 289 289 290 291 290 290 290 292 291 292 292 292 293 296 298 300 302 304 307 308 308 307 304 304 303 303 302 300 299 298 297 295 295 294 294 291 290 290 290 290 289 289 288 287 285 284 282 282
287 287 287 287 288 289 291 290 289 289 289 290 291 291 291 292 292 293 294 296 298 300 304 305 306 307 306 305 305 299 301 299 297 297 295 294 295 293 293 293 290 290 290 290 289 288 288 286 285 284 282 282
287 287 287 289 288 289 289 288 288 289 289 289 290 290 290 291 291 292 292 293 295 297 299 301 304 306 306 305 303 303 299 295 294 296 297 296 294 294 293 292 290 289 288 289 288 288 288 286 286 284 282 281
286 288 287 287 287 287 288 289 288 287 288 288 288 289 288 289 290 291 292 292 293 293 295 297 299 302 305 306 303 298 299 297 295 293 294 295 295 294 293 293 291 290 290 289 288 287 286 285 285 283 283 282
285 285 286 286 289 289 287 287 288 286 287 288 287 287 287 288 289 291 291 291 291 292 292 293 295 297 300 302 299 296 296 297 297 296 296 293 295 294 293 292 291 291 291 289 289 287 286 285 285 282 282 281
284 285 285 286 287 287 287 287 286 286 287 287 287 286 287 287 289 289 290 290 290 290 291 292 292 294 296 298 296 294 294 295 298 298 298 295 294 296 295 293 292 289 290 289 289 286 285 284 284 282 282 282
284 284 285 285 285 288 288 287 287 287 287 286 286 286 286 287 288 289 289 289 289 288 290 290 291 292 294 294 292 293 293 295 295 296 297 295 294 294 294 293 293 291 289 289 288 285 284 283 282 282 281 281
284 284 284 283 284 285 285 286 286 286 286 286 286 286 286 287 288 288 287 287 288 287 288 288 289 290 291 291 291 291 291 292 293 293 293 295 294 294 295 294 294 294 291 290 289 287 284 283 282 281 280 282
281 282 283 283 283 283 284 285 286 286 285 286 285 287 287 287 287 287 287 286 287 287 287 288 289 289 288 287 287 289 290 291 291 291 292 293 294 293 294 295 294 294 292 291 289 288 284 282 281 280 281 280
282 281 282 281 282 282 283 284 285 285 285 285 286 286 286 287 287 286 286 286 286 286 288 289 288 287 285 286 287 287 289 290 290 290 291 292 294 293 292 293 292 293 292 290 286 283 280 279 279 281 280 279
282 281 282 282 281 282 283 283 283 283 284 285 286 286 286 287 287 286 286 286 286 287 287 288 287 285 285 284 285 285 287 291 292 290 290 290 290 290 292 292 291 291 290 287 289 286 282 279 278 279 280 278
282 282 283 283 283 284 283 284 284 284 285 286 285 285 285 286 286 286 285 285 286 287 288 287 287 287 285 284 285 284 285 286 288 289 289 289 289 290 288 291 290 288 290 289 290 289 285 282 281 281 279 278
283 283 285 284 284 284 283 283 285 284 283 282 282 283 284 284 285 285 285 286 286 288 287 287 287 287 285 285 284 284 283 284 286 288 289 288 289 289 289 288 288 289 289 290 289 283 286 286 284 283 281 280
282 283 282 282 282 282 282 282 282 281 282 283 283 284 282 284 284 285 285 286 286 287 286 287 287 287 287 286 284 283 283 283 285 287 288 289 288 288 288 289 288 287 288 289 290 289 284 278 281 284 287 283
283 282 281 281 280 280 280 280 280 280 280 281 281 282 283 283 283 284 285 285 286 285 286 286 287 286 286 286 285 285 283 284 284 285 286 288 288 288 288 288 289 287 286 288 289 289 290 289 286 285 281 282
283 281 281 281 281 281 280 280 281 281 281 281 282 282 282 283 284 284 284 286 286 285 285 285 285 285 285 285 284 285 283 283 284 286 286 287 287 287 288 288 286 287 286 285 286 288 289 288 285 284 282 282
Wind_Speed
24 19 19 15 10 11 8 5 6 10 13 14 13 14 12 13 12 10 12 14 15 15 14 14 14 13 14 14 14 15 15 15 15 14 15 16 15 15 15 14 14 15 19 20 20 19 17 16 13 9 6 3
21 23 22 18 19 17 9 1 2 5 10 14 15 13 10 11 9 9 10 11 14 14 14 14 15 15 14 13 14 15 16 15 16 15 16 16 15 14 15 16 14 14 20 20 20 19 18 17 15 13 9 4
13 22 22 22 17 16 14 13 5 3 6 9 12 12 8 7 8 8 8 9 11 15 15 12 12 15 15 15 16 15 16 16 16 15 16 17 16 15 15 17 14 16 20 21 20 19 18 18 16 15 8 5
13 16 20 20 22 19 17 15 18 17 11 7 7 9 9 6 5 4 6 11 9 12 12 10 10 12 14 16 17 17 17 17 17 17 16 17 17 17 16 16 16 16 19 19 19 18 19 18 16 8 6 5
12 13 18 15 18 20 20 18 16 19 18 15 11 7 7 3 2 3 2 7 6 9 8 10 10 12 15 16 16 16 17 18 17 18 16 16 18 17 14 12 14 17 21 19 18 18 18 17 8 7 6 6
9 10 13 13 12 11 12 14 12 9 8 10 9 12 8 4 3 3 3 5 7 6 7 10 11 11 13 15 16 16 17 16 18 18 17 18 18 18 14 12 4 14 18 19 18 17 17 9 7 7 6 6
9 11 9 11 11 9 12 11 11 10 11 9 9 8 8 8 4 3 3 5 6 7 9 9 11 13 12 16 17 15 15 12 13 18 19 17 17 16 15 9 8 9 8 10 17 15 10 7 7 7 7 6
9 10 9 8 8 8 8 9 9 11 10 10 10 8 7 6 7 4 5 5 8 9 6 7 13 15 14 14 15 15 11 9 10 15 17 15 14 15 5 8 8 8 8 9 7 7 8 7 8 8 7 7
11 10 9 9 9 9 8 8 9 9 10 10 10 11 9 7 5 6 7 4 5 6 6 5 5 7 9 8 7 12 7 6 5 5 5 4 8 4 7 7 7 9 8 8 8 8 8 8 7 7 7 7
9 9 10 10 10 10 8 8 9 8 9 9 10 10 10 8 7 6 6 7 5 6 6 6 7 7 7 8 9 9 8 7 5 4 3 3 3 5 7 8 8 8 10 9 8 7 7 8 7 7 7 7
8 8 7 7 8 9 10 9 8 8 8 8 9 10 10 10 9 7 5 7 7 7 6 7 6 7 7 7 8 8 9 8 8 6 5 2 5 5 6 7 8 8 8 9 9 7 7 6 7 7 7 7
8 7 8 8 8 7 8 9 9 9 8 7 8 7 8 9 9 9 6 4 6 7 7 7 7 7 7 8 8 8 8 9 9 9 6 3 4 7 5 8 7 7 8 8 8 9 7 6 7 7 7 7
6 6 7 7 7 8 8 7 7 8 9 8 8 8 8 8 9 9 8 7 7 5 5 5 8 7 6 8 8 8 8 10 10 9 8 7 6 6 7 6 8 7 7 7 7 9 8 7 7 6 6 6
6 7 7 7 6 7 7 7 7 7 8 8 8 9 9 9 8 8 9 8 7 7 6 5 8 6 7 5 6 8 9 9 10 10 8 7 7 7 8 8 8 8 8 7 7 7 9 8 8 7 8 7
6 6 7 7 7 7 7 7 7 7 7 7 7 8 9 8 8 8 9 9 9 7 8 6 6 7 7 7 6 6 9 9 11 10 10 10 9 9 8 9 8 9 9 8 7 7 8 8 7 7 6 6
5 5 6 8 7 7 7 6 6 6 6 7 7 8 9 9 8 8 8 10 10 9 8 7 7 8 6 7 7 8 8 7 9 10 11 10 10 9 9 8 8 8 9 9 9 8 8 7 7 7 7 7
6 6 7 7 7 6 6 6 6 6 6 6 6 7 8 9 9 7 7 8 9 10 9 8 8 7 7 8 8 5 6 7 8 8 9 9 9 9 8 8 8 8 8 9 9 8 8 7 8 7 7 7
7 6 7 7 7 6 6 5 5 5 5 5 5 5 6 7 9 8 6 6 8 8 9 9 8 8 7 6 7 7 6 5 5 6 8 11 9 9 10 10 9 9 9 8 8 8 8 7 8 7 7 7
7 7 8 8 7 7 5 5 4 6 6 6 6 6 6 6 7 8 7 5 6 7 7 8 9 9 8 8 7 7 7 8 6 6 6 6 10 9 9 10 9 10 11 10 10 9 8 8 6 6 7 6
7 7 7 7 7 7 5 6 6 5 6 6 6 6 5 5 5 6 7 6 5 6 7 7 8 8 8 9 6 6 7 6 8 9 8 5 8 9 9 9 10 9 10 10 11 9 9 8 7 8 7 7
6 7 7 7 7 8 7 7 7 7 6 6 6 6 6 6 6 6 5 7 5 5 6 6 7 8 9 8 6 6 7 6 7 9 10 9 7 9 13 12 13 9 9 9 10 8 9 9 9 8 8 8
8 8 8 7 7 7 8 8 8 7 7 7 6 7 6 6 6 5 6 6 6 5 5 5 6 6 8 7 6 5 5 7 7 6 9 11 10 9 7 9 11 12 10 8 8 8 9 9 9 9 8 7
7 8 7 7 8 8 8 8 8 8 7 7 7 6 7 6 6 6 5 6 6 6 6 5 6 6 5 5 7 7 5 5 7 6 6 9 11 10 10 11 12 13 12 10 9 9 10 8 10 8 7 7
5 5 7 9 8 7 7 7 7 7 7 7 6 7 7 7 7 6 6 5 6 6 6 5 5 5 5 5 5 7 8 7 5 6 9 9 10 11 10 9 10 10 9 10 10 9 5 6 6 7 8 8
6 7 8 7 6 7 6 7 7 7 7 7 7 7 8 7 8 7 6 6 5 6 7 5 4 3 4 4 5 5 7 7 7 4 5 7 7 9 11 10 7 9 9 9 4 1 3 2 2 4 5 8
5 4 6 6 6 6 7 8 8 8 8 7 7 7 7 8 8 8 7 7 6 6 6 6 5 4 3 3 5 5 6 7 7 7 5 4 6 4 9 9 6 6 10 6 12 11 5 3 1 3 4 6
5 5 5 5 6 8 7 6 7 8 9 9 8 8 8 8 8 7 7 8 8 7 6 6 5 5 4 3 3 4 5 6 7 8 7 5 5 7 3 6 4 5 9 11 13 8 6 6 6 6 3 5
4 5 6 6 7 8 7 8 8 7 7 6 7 8 8 7 7 7 8 9 9 8 7 6 6 6 4 4 3 4 4 4 6 7 8 7 5 5 7 4 5 8 10 7 7 7 12 8 9 7 11 13
5 7 7 7 8 7 7 7 7 6 6 7 6 6 6 8 7 7 8 9 10 9 9 8 6 6 6 5 4 3 4 4 6 6 6 8 6 5 7 9 4 4 7 11 7 6 6 4 4 12 10 9
6 7 8 8 8 9 8 9 8 8 8 7 7 9 7 6 6 7 7 8 9 10 9 8 8 7 6 6 5 5 5 5 4 5 6 7 7 7 5 7 8 6 3 8 12 10 7 5 8 10 5 8
5 6 7 8 8 8 8 9 9 7 6 7 8 6 6 7 7 6 7 7 8 8 9 9 8 8 7 7 6 5 4 4 6 7 7 6 5 6 6 4 8 8 7 4 9 11 11 9 3 2 9 10
Wind_Direction
15 360 351 348 306 260 248 285 295 276 262 261 257 259 251 241 248 247 246 226 219 222 222 220 222 223 232 230 228 223 230 230 222 207 213 200 196 194 189 194 202 183 167 156 149 145 141 138 138 133 105 85
17 17 11 347 335 331 322 176 272 265 276 279 272 265 278 290 258 232 237 223 222 224 224 221 218 218 220 228 238 236 231 229 228 216 211 214 199 204 179 185 208 185 164 162 152 147 144 143 144 141 124 106
10 14 14 14 2 324 307 313 296 283 288 271 277 286 291 318 323 269 240 238 214 218 225 221 222 214 217 223 223 231 242 236 234 222 218 210 211 210 191 179 196 178 170 163 152 150 145 145 147 144 125 123
12 9 15 13 8 5 351 339 338 336 319 283 260 277 287 306 306 299 278 249 232 217 219 224 197 214 216 222 223 222 229 236 232 226 221 219 210 206 207 204 197 183 178 163 154 150 145 147 145 127 135 131
10 8 11 13 10 7 8 1 342 324 323 327 306 279 279 280 273 271 245 279 244 215 201 218 190 201 218 225 227 225 224 232 238 233 218 220 215 213 204 208 196 164 174 165 156 147 145 141 122 141 133 131
9 5 9 12 10 7 6 7 356 336 313 308 318 314 298 287 238 208 210 224 261 237 210 199 185 195 209 227 233 229 229 225 229 236 232 215 219 211 206 199 139 142 165 163 153 146 138 124 140 139 139 130
8 9 8 9 7 4 3 2 4 1 346 331 314 311 316 306 273 233 215 209 215 240 221 203 188 190 202 218 230 235 244 250 230 232 237 224 220 214 201 119 144 142 150 154 155 139 128 143 146 143 140 137
7 7 5 5 6 5 0 360 1 359 358 354 335 320 306 314 306 274 233 224 222 229 247 233 193 186 196 204 218 224 246 262 241 242 249 237 207 224 154 150 143 147 146 149 144 138 146 149 153 150 153 146
1 360 0 1 360 2 358 2 3 357 355 350 350 344 331 324 318 306 292 247 217 212 221 217 255 210 188 189 204 210 229 240 261 274 274 292 200 144 153 141 154 144 148 146 143 149 155 153 157 156 156 150
353 358 358 355 356 354 360 0 354 357 355 348 348 345 339 327 309 314 311 301 258 215 214 216 201 214 208 189 191 197 206 217 230 263 283 253 97 161 154 155 150 156 153 148 154 155 158 160 161 163 163 156
357 354 351 350 349 354 348 353 352 350 348 347 342 342 342 341 332 319 313 309 303 285 223 211 219 206 203 202 195 192 191 203 211 218 238 237 135 151 160 149 155 156 153 157 154 162 164 166 165 167 167 164
352 348 346 344 344 349 342 346 345 342 341 336 340 342 340 340 335 325 322 297 296 283 313 283 219 208 209 203 201 197 191 196 203 211 208 160 142 151 167 159 159 155 160 159 159 158 170 173 170 173 175 171
342 339 339 338 339 339 336 341 336 334 334 339 337 338 341 343 335 331 322 311 296 293 282 288 299 281 226 209 204 196 201 194 196 200 198 174 164 172 165 172 162 161 165 163 166 166 170 175 176 173 174 175
341 341 339 330 327 320 329 327 326 333 335 333 337 336 341 340 336 329 322 315 299 297 277 263 269 264 280 277 242 202 199 198 192 195 193 178 165 176 174 173 179 161 168 169 174 174 171 178 179 176 174 177
331 334 330 320 318 320 318 314 323 330 328 328 332 332 335 338 340 333 325 318 314 302 297 276 258 261 247 243 250 249 221 193 196 191 189 187 177 182 180 183 176 169 170 174 179 183 177 180 170 180 183 178
319 324 318 314 313 312 308 314 320 323 323 325 326 331 333 335 339 337 330 325 322 314 304 292 276 270 254 240 243 231 236 225 203 192 194 188 182 180 176 172 174 179 171 181 184 183 186 172 179 183 182 179
311 315 318 312 302 301 307 313 317 320 319 319 323 328 333 332 334 342 335 331 327 323 314 309 298 272 256 251 247 235 243 243 246 207 183 189 178 173 176 171 178 175 184 179 188 184 190 175 188 186 175 184
310 311 313 307 299 295 305 304 311 307 308 315 322 324 325 329 331 333 335 333 330 327 325 320 313 300 281 258 251 229 214 230 230 246 216 190 175 182 176 186 181 173 185 197 180 188 188 185 192 179 181 184
308 313 312 306 298 294 292 292 291 292 303 319 313 317 313 322 325 323 328 331 325 328 326 324 323 319 311 293 262 245 220 204 211 216 237 227 183 185 183 189 184 188 191 183 187 191 181 194 185 180 193 183
306 309 309 302 291 289 282 278 283 283 292 296 294 293 302 314 312 314 318 323 326 325 323 321 319 318 320 319 303 276 253 219 206 201 212 234 218 179 198 183 194 196 195 192 194 184 184 184 181 189 190 193
307 309 305 301 295 288 281 274 272 276 277 279 285 282 293 295 300 305 304 310 315 314 313 311 309 312 315 319 323 295 277 256 225 208 205 201 218 223 195 189 193 192 200 197 198 185 185 184 182 187 194 196
318 311 307 300 293 289 281 274 270 267 260 261 260 276 277 280 289 292 299 302 308 306 299 297 297 298 306 316 326 319 295 273 263 240 213 206 201 207 216 198 195 193 195 193 190 192 195 188 184 191 187 194
321 317 314 304 295 290 285 281 277 270 269 259 260 265 270 278 283 285 288 297 302 306 305 302 295 289 291 312 316 318 307 292 284 269 238 221 210 203 201 198 200 196 190 193 193 194 200 190 194 183 180 176
323 324 323 318 309 306 297 293 291 290 281 278 278 267 269 278 277 277 279 281 291 297 299 301 297 290 290 306 312 311 310 302 288 272 261 238 222 213 214 213 205 201 186 195 194 202 192 197 186 185 181 180
335 332 324 314 305 300 303 303 298 291 283 281 271 270 271 270 274 270 274 278 280 281 290 288 286 287 292 286 295 298 289 286 290 271 268 272 252 216 215 220 206 200 180 173 171 70 152 179 191 196 179 193
319 309 309 301 295 302 309 313 309 303 296 283 275 273 267 265 262 267 266 270 270 268 270 284 284 276 263 265 271 272 279 290 288 296 291 263 267 250 213 223 202 194 150 191 193 188 202 193 261 215 208 208
311 317 318 318 309 313 307 294 292 291 291 292 287 279 272 266 261 260 270 268 266 263 260 259 267 262 246 235 248 273 289 285 289 289 286 271 254 262 253 215 185 164 198 192 201 189 144 200 211 220 230 239
315 317 308 302 293 295 291 292 292 289 280 278 278 277 270 274 270 264 264 268 266 261 254 253 257 261 253 252 220 224 248 270 276 282 285 277 252 251 259 235 219 177 195 218 164 162 198 194 194 220 231 219
321 321 316 306 302 299 301 298 292 294 290 281 279 282 283 268 266 270 267 268 268 260 259 256 252 250 256 250 232 212 219 234 246 257 265 275 272 240 245 252 232 211 196 214 213 186 140 61 182 218 224 190
324 318 310 311 312 312 311 303 300 296 290 298 304 294 286 292 281 270 266 267 267 262 260 259 253 251 246 252 251 223 215 221 234 246 250 254 253 259 236 255 252 235 226 223 225 231 236 211 210 199 191 132
314 309 304 298 293 291 292 292 289 278 277 283 283 271 276 278 277 267 268 271 269 266 262 261 259 256 247 237 239 241 228 217 216 228 228 239 245 247 252 235 255 237 226 227 243 240 245 264 307 279 149 201